Regional Weather Roundup
Issued by NWS

Home | Current Version | Previous Version | Graphics & Text | Print | Product List | Glossary On
Versions: 1 2 3 4 5 6 7 8 9 10 11 12 13 14 15 16 17 18 19 20 21 22 23 24 25 26 27 28 29 30 31 32 33 34 35 36 37 38 39 40 41 42 43 44 45 46 47 48 49 50
000
ASUS43 KFSD 311102
RWRSD

WEATHER ROUNDUP FOR SOUTH DAKOTA
NATIONAL WEATHER SERVICE SIOUX FALLS SD
600 AM CDT FRI OCT 31 2014

NOTE: "FAIR" INDICATES FEW OR NO CLOUDS BELOW 12,000 FEET WITH NO
SIGNIFICANT WEATHER AND/OR OBSTRUCTIONS TO VISIBILITY.


SDZ001>005-009-010-012>017-311200-
NORTHWEST AND NORTH CENTRAL SOUTH DAKOTA

CITY           SKY/WX    TMP DP  RH WIND       PRES   REMARKS
BUFFALO          N/A     31  28  89 SE21G32   30.31F WCI  18
FAITH            N/A     27  22  81 S15G24    30.48S WCI  15
MOBRIDGE       PTCLDY    21  17  84 E9        30.53F WCI  11
$$

SDZ012>016-024>037-041>051-057-063-072>074-311200-
SOUTHWEST AND SOUTH CENTRAL SOUTH DAKOTA

CITY           SKY/WX    TMP DP  RH WIND       PRES   REMARKS
RAPID CTY ARPT CLOUDY    32  30  92 S13       30.43F WCI  22
PIERRE         PTCLDY    17  15  92 NE3       30.56S
CUSTER         FOG       27  25  92 CALM      30.35F VSB 3/4
ELLSWORTH AFB  CLOUDY    32  31  97 S15       30.41F WCI  22
PHILIP         CLOUDY    30  24  78 SE10      30.52F WCI  21
PINE RIDGE     CLOUDY    29  27  92 SE10      30.46S FOG     WCI  20
SPEARFISH      FOG       28  28 100 CALM      30.32F VSB<1/4
WINNER         FAIR      19  15  84 SW6       30.56S WCI  11
$$

SDZ004>011-016>023-039-040-311200-
NORTHEAST SOUTH DAKOTA

CITY           SKY/WX    TMP DP  RH WIND       PRES   REMARKS
ABERDEEN       CLEAR     15  11  83 N6        30.60S WCI   6
WATERTOWN      CLEAR     18  15  88 NW8       30.55R WCI   8
SISSETON         N/A     18  16  92 NW8       30.58R WCI   8
$$

SDZ017-020-022-023-036>040-048>070-311200-
SOUTHEAST SOUTH DAKOTA

CITY           SKY/WX    TMP DP  RH WIND       PRES   REMARKS
SIOUX FALLS    PTCLDY    20  16  84 N7        30.55R WCI  11
HURON          PTCLDY    11   9  92 W5        30.60R WCI   3
CHAMBERLAIN    PTCLDY    17  14  86 CALM      30.58S
MITCHELL       CLEAR     17  15  92 NW7       30.60R WCI   8
YANKTON        CLEAR     23  18  80 NW9       30.59R WCI  13
$$

ABBREVIATIONS USED IN REMARKS
   TC - TEMPERATURE IN CELSIUS
  WCI - WIND CHILL INDEX
   HX - HEAT INDEX
  VSB - VISIBILITY




USA.gov is the U.S. government's official web portal to all federal, state and local government web resources and services.